Location: Newark
(35.2672°N, 80.7344°W)
Time: 04:55:02
(UTC+00:00)

Tiros 1 - Pass Details

Date: 28 January 2020
Orbit: 631 x 664 km, 48.4° (Epoch: 18 February)

Event Time Altitude Azimuth Distance (km) Brightness Sun altitude
Rises 20:30:09 0° 308° (NW) 2,955 10.6 22.5°
Reaches altitude 10° 20:33:08 10° 327° (NNW) 2,051 9.7 22.0°
Maximum altitude 20:36:26 19° 11° (NNE) 1,569 8.8 21.5°
Drops below altitude 10° 20:39:46 10° 56° (NE) 2,064 9.2 21.0°
Sets 20:42:47 0° 75° (ENE) 2,980 10.0 20.6°
